SL-16 R/B

基本信息
目录编号:
25861
目录名称:
SL-16 R/B
国际标识:
1999-039B
轨道中心:
EARTH
物体状态:
在轨
发射日期:
1999-07-17 UTC
国别:
俄罗斯(独联体) (CIS)
轨道信息
数据来源: 国际轨道数据
星历时间: 2026-07-14T00:53:05+0800
半长轴: 7001.566km
偏心率: 0.0014208
轨道倾角: 97.982°
近地点辐角: 203.408°
升交点赤经: 253.489°
平近点角: 156.649°
近地点: 613.481km
远地点: 633.377km
周期: 97.175分钟
每日圈数: 14.818698
详细信息
发射场:
TTMTR
轨道高度:
LEO
数据来源:
AOE Integration Group
参考系:
TEME
时间系统:
UTC
历元类型:
SGP4
2D轨道图
3D轨道图
轨道高度分析图
轨道倾角分析图
轨道综合分析图
查看轨道综合分析图